• In Österreich
  • Länderverzeichnis
  • Für 7 Tage
  • Wassertemperatur
  • Satellitenkarten
  • Wetterkarte
  • News
  • Widgets
  • user-avatar
    Anmelden

    Stündliche Wetter Absam

    Heute, 19 August, Sonntag

    Zeit Temperatur Niederschläge Wind Luftdruck Luftfeuchtigkeit
    00:00 +16°C° 0,3 mm 1 m/S 694 mmHg 94%
    01:00 +16°C° 0 mm 1 m/S 694 mmHg 94%
    02:00 +16°C° 0,2 mm 1 m/S 694 mmHg 95%
    03:00 +16°C° 0,2 mm 1 m/S 694 mmHg 95%
    04:00 +15°C° 0,2 mm 1 m/S 694 mmHg 95%
    05:00 +16°C° 0 mm 1 m/S 694 mmHg 93%
    06:00 +19°C° 0 mm 1 m/S 695 mmHg 91%
    07:00 +20°C° 0 mm 1 m/S 695 mmHg 87%
    08:00 +22°C° 0,2 mm 1 m/S 695 mmHg 79%
    09:00 +24°C° 0,2 mm 1 m/S 695 mmHg 70%
    10:00 +26°C° 0,2 mm 1 m/S 696 mmHg 62%
    11:00 +26°C° 0,5 mm 1 m/S 695 mmHg 60%
    12:00 +27°C° 0,5 mm 1 m/S 695 mmHg 58%
    13:00 +27°C° 0,5 mm 2 m/S 695 mmHg 56%
    14:00 +27°C° 1,1 mm 1 m/S 695 mmHg 62%
    15:00 +26°C° 1,1 mm 1 m/S 695 mmHg 67%
    16:00 +25°C° 1,1 mm 1 m/S 694 mmHg 73%
    17:00 +24°C° 1 mm 1 m/S 694 mmHg 79%
    18:00 +23°C° 1 mm 1 m/S 694 mmHg 84%
    19:00 +19°C° 1 mm 0 m/S 694 mmHg 90%
    20:00 +18°C° 0,6 mm 0 m/S 694 mmHg 91%
    21:00 +19°C° 0,6 mm 1 m/S 694 mmHg 93%
    22:00 +18°C° 0,6 mm 1 m/S 694 mmHg 94%
    23:00 +18°C° 0,2 mm 1 m/S 694 mmHg 94%

    Morgen, 20 August, Montag

    Zeit Temperatur Niederschläge Wind Luftdruck Luftfeuchtigkeit
    00:00 +18°C° 0,2 mm 1 m/S 694 mmHg 95%
    01:00 +16°C° 0,2 mm 1 m/S 694 mmHg 95%
    02:00 +16°C° 0 mm 1 m/S 694 mmHg 95%
    03:00 +16°C° 0 mm 1 m/S 694 mmHg 96%
    04:00 +16°C° 0 mm 1 m/S 693 mmHg 96%
    05:00 +18°C° 0 mm 1 m/S 694 mmHg 95%
    06:00 +19°C° 0 mm 1 m/S 694 mmHg 93%
    07:00 +20°C° 0 mm 1 m/S 694 mmHg 92%
    08:00 +21°C° 0,1 mm 1 m/S 694 mmHg 84%
    09:00 +23°C° 0,1 mm 1 m/S 695 mmHg 77%
    10:00 +25°C° 0,1 mm 1 m/S 695 mmHg 69%
    11:00 +25°C° 0,3 mm 1 m/S 695 mmHg 66%
    12:00 +26°C° 0,3 mm 2 m/S 694 mmHg 64%
    13:00 +27°C° 0,3 mm 2 m/S 694 mmHg 62%
    14:00 +26°C° 0,8 mm 2 m/S 694 mmHg 65%
    15:00 +26°C° 0,8 mm 2 m/S 694 mmHg 69%
    16:00 +25°C° 0,8 mm 2 m/S 694 mmHg 73%
    17:00 +24°C° 0,8 mm 1 m/S 694 mmHg 79%
    18:00 +22°C° 0,8 mm 1 m/S 694 mmHg 85%
    19:00 +21°C° 0,8 mm 1 m/S 693 mmHg 92%
    20:00 +20°C° 0,2 mm 1 m/S 694 mmHg 93%
    21:00 +20°C° 0,2 mm 1 m/S 694 mmHg 95%
    22:00 +19°C° 0,2 mm 1 m/S 694 mmHg 96%
    23:00 +19°C° 0 mm 1 m/S 694 mmHg 97%

    übermorgen, 21 August, Dienstag

    Zeit Temperatur Niederschläge Wind Luftdruck Luftfeuchtigkeit
    00:00 +18°C° 0 mm 1 m/S 694 mmHg 97%
    01:00 +18°C° 0 mm 1 m/S 694 mmHg 97%
    02:00 +18°C° 0 mm 1 m/S 694 mmHg 97%
    03:00 +16°C° 0 mm 1 m/S 694 mmHg 97%
    04:00 +16°C° 0 mm 1 m/S 694 mmHg 97%
    05:00 +18°C° 0 mm 1 m/S 694 mmHg 95%
    06:00 +16°C° 0 mm 0 m/S 694 mmHg 93%
    07:00 +17°C° 0 mm 0 m/S 694 mmHg 92%
    08:00 +21°C° 0 mm 1 m/S 694 mmHg 82%
    09:00 +23°C° 0 mm 1 m/S 695 mmHg 72%
    10:00 +26°C° 0 mm 1 m/S 695 mmHg 63%
    11:00 +26°C° 0,3 mm 1 m/S 695 mmHg 60%
    12:00 +27°C° 0,3 mm 1 m/S 695 mmHg 58%
    13:00 +27°C° 0,3 mm 2 m/S 694 mmHg 56%
    14:00 +27°C° 0,9 mm 2 m/S 694 mmHg 60%
    15:00 +26°C° 0,9 mm 1 m/S 694 mmHg 65%
    16:00 +26°C° 0,9 mm 1 m/S 694 mmHg 69%
    17:00 +24°C° 1 mm 1 m/S 693 mmHg 76%
    18:00 +23°C° 1 mm 1 m/S 693 mmHg 83%
    19:00 +21°C° 1 mm 1 m/S 693 mmHg 90%
    20:00 +21°C° 0,9 mm 1 m/S 693 mmHg 91%
    21:00 +20°C° 0,9 mm 1 m/S 694 mmHg 92%
    22:00 +19°C° 0,9 mm 1 m/S 694 mmHg 93%
    23:00 +19°C° 0,4 mm 1 m/S 694 mmHg 93%

    22 August, Mittwoch

    Zeit Temperatur Niederschläge Wind Luftdruck Luftfeuchtigkeit
    00:00 +18°C° 0,4 mm 1 m/S 694 mmHg 94%
    01:00 +18°C° 0,4 mm 1 m/S 693 mmHg 94%
    02:00 +18°C° 0,2 mm 1 m/S 693 mmHg 94%
    03:00 +16°C° 0,2 mm 1 m/S 693 mmHg 94%
    04:00 +16°C° 0,2 mm 1 m/S 693 mmHg 94%
    05:00 +18°C° 0,2 mm 1 m/S 693 mmHg 92%
    06:00 +19°C° 0,2 mm 1 m/S 693 mmHg 90%
    07:00 +20°C° 0,2 mm 1 m/S 694 mmHg 89%
    08:00 +22°C° 0,1 mm 1 m/S 694 mmHg 79%
    09:00 +24°C° 0,1 mm 1 m/S 694 mmHg 69%
    10:00 +27°C° 0,1 mm 1 m/S 694 mmHg 60%
    11:00 +27°C° 1,1 mm 1 m/S 694 mmHg 61%
    12:00 +27°C° 1,1 mm 1 m/S 694 mmHg 62%
    13:00 +27°C° 1,1 mm 2 m/S 693 mmHg 63%
    14:00 +27°C° 1,8 mm 1 m/S 693 mmHg 66%
    15:00 +26°C° 1,8 mm 1 m/S 693 mmHg 70%
    16:00 +26°C° 1,8 mm 1 m/S 693 mmHg 74%
    17:00 +24°C° 1,3 mm 1 m/S 693 mmHg 79%
    18:00 +21°C° 1,3 mm 0 m/S 693 mmHg 84%
    19:00 +19°C° 1,3 mm 0 m/S 692 mmHg 89%
    20:00 +19°C° 0,9 mm 0 m/S 693 mmHg 90%
    21:00 +20°C° 0,9 mm 1 m/S 693 mmHg 91%
    22:00 +19°C° 0,9 mm 1 m/S 693 mmHg 92%
    23:00 +19°C° 0,2 mm 1 m/S 693 mmHg 92%

    23 August, Donnerstag

    Zeit Temperatur Niederschläge Wind Luftdruck Luftfeuchtigkeit
    00:00 +19°C° 0,2 mm 1 m/S 693 mmHg 92%
    01:00 +19°C° 0,2 mm 1 m/S 692 mmHg 92%
    02:00 +18°C° 0,1 mm 1 m/S 692 mmHg 92%
    03:00 +18°C° 0,1 mm 1 m/S 692 mmHg 92%
    04:00 +18°C° 0,1 mm 1 m/S 692 mmHg 92%
    05:00 +19°C° 0 mm 1 m/S 692 mmHg 90%
    06:00 +19°C° 0 mm 1 m/S 692 mmHg 88%
    07:00 +20°C° 0 mm 1 m/S 692 mmHg 86%
    08:00 +22°C° 0,3 mm 1 m/S 692 mmHg 79%
    09:00 +24°C° 0,3 mm 1 m/S 692 mmHg 72%
    10:00 +26°C° 0,3 mm 1 m/S 693 mmHg 64%
    11:00 +26°C° 0,9 mm 1 m/S 692 mmHg 63%
    12:00 +26°C° 0,9 mm 1 m/S 692 mmHg 62%
    13:00 +27°C° 0,9 mm 1 m/S 691 mmHg 61%
    14:00 +26°C° 2 mm 1 m/S 691 mmHg 67%
    15:00 +25°C° 2 mm 1 m/S 691 mmHg 73%
    16:00 +24°C° 2 mm 1 m/S 690 mmHg 79%
    17:00 +23°C° 1,5 mm 1 m/S 690 mmHg 83%
    18:00 +22°C° 1,5 mm 1 m/S 690 mmHg 88%
    19:00 +20°C° 1,5 mm 1 m/S 690 mmHg 92%
    20:00 +20°C° 0,5 mm 1 m/S 690 mmHg 92%
    21:00 +20°C° 0,5 mm 1 m/S 690 mmHg 93%
    22:00 +19°C° 0,5 mm 1 m/S 690 mmHg 93%
    23:00 +19°C° 0,1 mm 1 m/S 690 mmHg 93%

    24 August, Freitag

    Zeit Temperatur Niederschläge Wind Luftdruck Luftfeuchtigkeit
    00:00 +18°C° 0,1 mm 1 m/S 689 mmHg 93%
    01:00 +18°C° 0,1 mm 1 m/S 689 mmHg 92%
    02:00 +18°C° 0,1 mm 1 m/S 689 mmHg 92%
    03:00 +18°C° 0,1 mm 1 m/S 688 mmHg 92%
    04:00 +16°C° 0,1 mm 1 m/S 688 mmHg 92%
    05:00 +18°C° 0,1 mm 1 m/S 688 mmHg 91%
    06:00 +19°C° 0,1 mm 1 m/S 688 mmHg 90%
    07:00 +19°C° 0,1 mm 1 m/S 688 mmHg 88%
    08:00 +21°C° 0,3 mm 1 m/S 688 mmHg 81%
    09:00 +23°C° 0,3 mm 1 m/S 688 mmHg 74%
    10:00 +24°C° 0,3 mm 1 m/S 688 mmHg 67%
    11:00 +25°C° 0,7 mm 1 m/S 688 mmHg 65%
    12:00 +25°C° 0,7 mm 1 m/S 687 mmHg 64%
    13:00 +26°C° 0,7 mm 2 m/S 687 mmHg 62%
    14:00 +24°C° 1,7 mm 2 m/S 687 mmHg 70%
    15:00 +23°C° 1,7 mm 2 m/S 686 mmHg 77%
    16:00 +20°C° 1,7 mm 2 m/S 686 mmHg 84%
    17:00 +20°C° 3,4 mm 1 m/S 686 mmHg 88%
    18:00 +19°C° 3,4 mm 1 m/S 686 mmHg 92%
    19:00 +18°C° 3,4 mm 1 m/S 686 mmHg 97%
    20:00 +18°C° 2,4 mm 1 m/S 686 mmHg 97%
    21:00 +16°C° 2,4 mm 1 m/S 686 mmHg 97%
    22:00 +16°C° 2,4 mm 1 m/S 686 mmHg 98%
    23:00 +16°C° 2,2 mm 1 m/S 686 mmHg 98%
    Mehr zeigen